Weather History for Drummond Island, MI

Change the Weather History Date:

Saturday, May 11, 2013

  Actual Average (KCIU) Record (KCIU)
Temperature  
Mean Temperature 41 °F -  
Max Temperature 51 °F 66 °F 81 °F (1993)
Min Temperature 31 °F 37 °F 23 °F (1983)
Degree Days  
Heating Degree Days 24    
Moisture  
Dew Point 34 °F    
Average Humidity 80    
Maximum Humidity 100    
Minimum Humidity 52    
Precipitation  
Precipitation 0.00 in - - ()
Sea Level Pressure  
Sea Level Pressure 29.76 in    
Wind  
Wind Speed 3 mph (West)    
Max Wind Speed 13 mph    
Max Gust Speed 25 mph    
Visibility 9 miles    
Events Rain , Snow    
Averages and records for this station are not official NWS values.
T = Trace of Precipitation, MM = Missing Value Source: NWS Daily Summary

Daily Weather History Graph

Daily Weather History Graph

Search for Another Location

Airport:

Trip Planner

Search our weather history database for the weather conditions in past years. The results will help you decide how hot, cold, wet, or windy it might be!

Date:

Astronomy

May. 11, 2013 Rise Set
Actual Time 6:07 AM EDT 8:56 PM EDT
Civil Twilight 5:32 AM EDT 9:30 PM EDT
Nautical Twilight 4:49 AM EDT 10:14 PM EDT
Astronomical Twilight 3:57 AM EDT 11:06 PM EDT
Moon 7:12 AM EDT (5/11) 10:37 PM EDT (5/11)
Length of Visible Light 15h 57m
Length of Day
14h 48m
Waxing Crescent, 3% of the Moon is Illuminated
May 11
Waxing Crescent
May 18
First Quarter
May 25
Full
May 31
Last Quarter
Jun 8
New

Hourly Weather History & Observations

Time (EDT) Temp. Windchill Dew Point Humidity Pressure Visibility Wind Dir Wind Speed Gust Speed Precip Events Conditions
12:15 AM 42.4 °F - 34.2 °F 72% 29.91 in 10.0 mi Calm Calm - N/A   Overcast
12:36 AM 43.0 °F - 34.2 °F 71% 29.91 in 10.0 mi Calm Calm - N/A   Overcast
12:55 AM 42.8 °F 41.1 °F 34.7 °F 73% 29.91 in 10.0 mi NW 3.5 mph - N/A   Overcast
1:15 AM 43.2 °F - 34.5 °F 72% 29.90 in 10.0 mi Calm Calm - N/A   Overcast
1:35 AM 43.3 °F - 34.2 °F 70% 29.89 in 10.0 mi Calm Calm - N/A   Overcast
1:55 AM 42.8 °F - 34.2 °F 72% 29.88 in 10.0 mi Calm Calm - N/A   Overcast
2:15 AM 42.3 °F - 34.9 °F 75% 29.87 in 10.0 mi Calm Calm - N/A   Overcast
2:35 AM 41.5 °F - 34.9 °F 77% 29.87 in 10.0 mi Calm Calm - N/A   Overcast
2:56 AM 40.6 °F - 34.7 °F 79% 29.86 in 10.0 mi Calm Calm - N/A   Mostly Cloudy
3:15 AM 39.7 °F - 33.8 °F 79% 29.86 in 10.0 mi Calm Calm - N/A   Scattered Clouds
3:35 AM 39.0 °F - 32.9 °F 79% 29.85 in 10.0 mi Calm Calm - N/A   Clear
3:56 AM 35.8 °F - 33.3 °F 91% 29.85 in 10.0 mi Calm Calm - N/A   Clear
4:15 AM 37.4 °F - 32.9 °F 84% 29.84 in 10.0 mi Calm Calm - N/A   Clear
4:36 AM 34.9 °F 32.0 °F 32.0 °F 89% 29.84 in 10.0 mi West 3.5 mph - N/A   Scattered Clouds
4:56 AM 34.7 °F - 32.2 °F 91% 29.83 in 10.0 mi Calm Calm - N/A   Clear
5:15 AM 33.1 °F - 32.0 °F 96% 29.83 in 10.0 mi Calm Calm - N/A   Clear
5:36 AM 32.0 °F - 31.8 °F 99% 29.82 in 10.0 mi Calm Calm - N/A   Clear
5:55 AM 32.2 °F - 32.0 °F 99% 29.81 in 10.0 mi Calm Calm - N/A   Clear
6:15 AM 31.8 °F - 31.6 °F 99% 29.81 in 10.0 mi Calm Calm - N/A   Clear
6:36 AM 32.0 °F - 32.0 °F 100% 29.81 in 10.0 mi Calm Calm - N/A   Clear
6:55 AM 32.0 °F - 32.0 °F 100% 29.81 in 10.0 mi Calm Calm - N/A   Clear
7:15 AM 36.5 °F - 35.8 °F 97% 29.80 in 10.0 mi Calm Calm - N/A   Clear
7:36 AM 40.1 °F 38.0 °F 36.1 °F 86% 29.80 in 10.0 mi WNW 3.5 mph - N/A   Clear
7:55 AM 41.4 °F 39.4 °F 36.0 °F 81% 29.80 in 10.0 mi WNW 3.5 mph - N/A   Clear
8:15 AM 42.3 °F 39.4 °F 35.8 °F 78% 29.80 in 10.0 mi WNW 4.6 mph - N/A   Clear
8:36 AM 42.6 °F 40.9 °F 35.8 °F 77% 29.79 in 10.0 mi West 3.5 mph - N/A   Clear
8:55 AM 43.9 °F 41.3 °F 35.1 °F 71% 29.79 in 10.0 mi West 4.6 mph - N/A   Clear
9:16 AM 45.5 °F 44.2 °F 36.0 °F 69% 29.78 in 10.0 mi WSW 3.5 mph - N/A   Clear
9:36 AM 45.7 °F - 35.6 °F 68% 29.78 in 10.0 mi Calm Calm - N/A   Clear
9:55 AM 46.6 °F - 36.3 °F 67% 29.78 in 10.0 mi WNW 3.5 mph - N/A   Clear
10:16 AM 46.4 °F - 36.3 °F 68% 29.78 in 10.0 mi Calm Calm - N/A   Mostly Cloudy
10:35 AM 46.4 °F 45.2 °F 34.5 °F 63% 29.78 in 10.0 mi WNW 3.5 mph - N/A   Overcast
10:55 AM 48.0 °F - 36.5 °F 64% 29.77 in 10.0 mi WNW 5.8 mph - N/A   Overcast
11:16 AM 47.8 °F - 36.0 °F 63% 29.76 in 10.0 mi West 3.5 mph - N/A   Overcast
11:35 AM 49.1 °F - 35.2 °F 59% 29.74 in 10.0 mi South 4.6 mph - N/A   Overcast
11:55 AM 49.8 °F - 33.8 °F 54% 29.73 in 10.0 mi SSW 4.6 mph - N/A   Scattered Clouds
12:15 PM 50.0 °F - 33.4 °F 53% 29.71 in 10.0 mi SSW 3.5 mph - N/A   Scattered Clouds
12:35 PM 51.1 °F - 35.2 °F 55% 29.71 in 10.0 mi South 5.8 mph - N/A   Scattered Clouds
12:55 PM 51.1 °F - 34.7 °F 54% 29.70 in 10.0 mi SW 5.8 mph - N/A   Scattered Clouds
1:15 PM 51.6 °F - 34.3 °F 52% 29.69 in 10.0 mi SE 3.5 mph - N/A   Clear
1:36 PM 51.3 °F - 34.5 °F 53% 29.68 in 10.0 mi South 6.9 mph - N/A   Mostly Cloudy
1:55 PM 51.4 °F - 35.4 °F 54% 29.67 in 10.0 mi SE 6.9 mph - N/A   Mostly Cloudy
2:15 PM 51.3 °F - 35.2 °F 54% 29.66 in 10.0 mi South 8.1 mph - N/A   Scattered Clouds
2:36 PM 51.1 °F - 35.2 °F 55% 29.65 in 10.0 mi South 6.9 mph - N/A   Mostly Cloudy
2:55 PM 51.8 °F - 36.7 °F 56% 29.65 in 10.0 mi SSE 6.9 mph - N/A   Overcast
3:16 PM 48.2 °F - 36.5 °F 64% 29.65 in 10.0 mi SW 6.9 mph - N/A   Overcast
3:36 PM 45.7 °F 40.6 °F 34.5 °F 65% 29.67 in 10.0 mi SSW 10.4 mph - N/A Rain Light Rain
3:55 PM 41.2 °F 35.5 °F 36.7 °F 84% 29.69 in 10.0 mi WSW 9.2 mph 17.3 mph N/A Rain Rain
4:16 PM 40.1 °F 36.1 °F 37.6 °F 91% 29.69 in 7.0 mi WSW 5.8 mph - N/A Rain Light Rain
4:35 PM 39.2 °F 33.6 °F 37.2 °F 93% 29.70 in 5.0 mi WNW 8.1 mph - N/A Rain Rain
4:55 PM 36.5 °F 30.3 °F 35.1 °F 95% 29.71 in 4.0 mi WNW 8.1 mph - N/A Rain Heavy Rain
5:16 PM 33.3 °F 30.2 °F 32.7 °F 98% 29.70 in 0.8 mi WNW 3.5 mph - N/A Snow Light Snow
5:35 PM 32.9 °F 28.5 °F 32.7 °F 99% 29.72 in 0.8 mi WNW 4.6 mph - N/A Snow Light Snow
5:55 PM 33.1 °F 26.9 °F 32.9 °F 99% 29.70 in 1.2 mi NW 6.9 mph - N/A Snow Light Snow
6:16 PM 33.4 °F 27.3 °F 33.3 °F 99% 29.70 in 2.0 mi NW 6.9 mph - N/A Snow Light Snow
6:35 PM 34.0 °F 28.8 °F 33.6 °F 99% 29.71 in 5.0 mi WNW 5.8 mph 18.4 mph N/A Snow Light Snow
6:55 PM 34.3 °F 27.7 °F 33.4 °F 97% 29.70 in 7.0 mi WNW 8.1 mph - N/A Rain Light Rain
7:16 PM 34.7 °F 28.1 °F 33.8 °F 97% 29.70 in 7.0 mi NW 8.1 mph 17.3 mph N/A Rain Light Rain
7:35 PM 34.7 °F 27.5 °F 33.8 °F 97% 29.70 in 5.0 mi WNW 9.2 mph - N/A Rain Light Rain
7:56 PM 35.1 °F 30.1 °F 34.0 °F 96% 29.70 in 7.0 mi NW 5.8 mph 17.3 mph N/A Rain Light Rain
8:16 PM 35.2 °F 27.6 °F 34.0 °F 95% 29.70 in 7.0 mi WNW 10.4 mph 20.7 mph N/A Rain Light Rain
8:35 PM 35.6 °F 27.1 °F 33.8 °F 93% 29.70 in 7.0 mi WNW 12.7 mph 20.7 mph N/A   Light Drizzle
8:56 PM 35.6 °F 27.5 °F 34.5 °F 96% 29.70 in 10.0 mi WNW 11.5 mph 18.4 mph N/A Rain Light Rain
9:15 PM 36.0 °F 29.0 °F 34.3 °F 94% 29.69 in 10.0 mi WNW 9.2 mph 16.1 mph N/A   Light Drizzle
9:35 PM 36.1 °F 27.7 °F 34.7 °F 94% 29.70 in 10.0 mi WNW 12.7 mph 19.6 mph N/A Rain Rain
10:15 PM 36.5 °F 29.2 °F 34.3 °F 92% 29.69 in 10.0 mi West 10.4 mph 25.3 mph N/A Rain Light Rain
10:35 PM 36.9 °F 30.7 °F 34.7 °F 92% 29.68 in 10.0 mi WNW 8.1 mph 21.9 mph N/A   Overcast
10:55 PM 36.7 °F 31.2 °F 34.3 °F 91% 29.67 in 10.0 mi West 6.9 mph 16.1 mph N/A   Overcast
11:15 PM 36.7 °F 32.0 °F 34.3 °F 91% 29.66 in 10.0 mi WSW 5.8 mph - N/A   Overcast
11:36 PM 36.7 °F 29.4 °F 34.0 °F 90% 29.65 in 10.0 mi West 10.4 mph 19.6 mph N/A   Overcast
11:55 PM 36.7 °F 32.0 °F 33.8 °F 89% 29.65 in 10.0 mi West 5.8 mph - N/A   Overcast